SCP
0 1 1 1 1 1 1 1 1 1 1 1 1 1 1 1 1 1 1 1 1 1 1 1 1 1 1 1 0 1 1 1 2 2 2 2 1 1 1 1 0 0 0
0 1 1 1 1 1 1 1 1 1 1 1 2 2 2 2 1 1 1 1 1 1 1 1 1 1 1 1 0 1 1 1 2 2 1 1 1 1 1 1 0 0 0
0 1 1 1 1 1 1 1 1 1 1 2 2 2 2 2 2 1 1 2 1 1 1 1 1 1 1 1 1 1 1 1 1 1 1 1 1 1 1 1 1 0 0
0 1 1 1 1 1 1 1 1 1 1 2 3 3 3 2 2 2 2 2 2 1 1 1 1 1 1 1 1 1 1 1 1 1 1 0 1 1 1 1 0 0 0
0 1 1 1 1 1 1 1 1 1 1 2 2 3 2 2 2 1 2 2 1 1 1 1 1 1 1 1 1 1 1 1 0 0 0 0 1 1 1 0 0 0 0
0 0 1 1 1 1 1 1 1 1 1 1 2 2 2 2 1 1 1 1 1 1 1 1 0 0 0 0 0 1 0 0 0 0 0 1 1 1 0 0 0 0 0
0 0 1 1 1 1 2 2 1 1 1 1 1 1 1 1 1 1 1 1 1 1 1 0 0 0 0 0 0 1 0 0 0 0 1 1 1 0 0 0 0 0 0
0 0 0 1 1 1 1 1 1 1 1 1 1 1 1 1 1 0 0 0 0 0 0 0 0 0 0 0 0 1 0 0 0 0 0 0 0 0 0 0 0 0 0
0 0 0 0 1 1 1 1 1 1 1 1 1 1 0 0 0 0 0 0 0 0 0 0 0 0 0 0 0 0 0 0 0 0 0 0 0 0 0 0 0 0 0
0 0 0 0 0 1 1 1 1 1 1 1 1 0 0 0 0 0 0 0 0 0 0 0 0 0 0 0 0 0 0 0 0 0 0 0 0 0 0 0 0 0 0
0 0 0 0 0 1 1 1 1 2 1 1 1 0 0 0 0 0 0 0 0 0 0 0 0 0 0 1 1 0 0 0 0 0 0 0 0 0 0 0 0 0 0
0 0 0 0 1 1 1 1 1 2 1 1 1 0 0 0 0 0 0 0 0 0 0 1 1 0 0 1 1 0 0 0 0 0 0 0 0 0 0 0 0 0 0
0 0 0 1 1 1 1 1 1 1 1 1 0 0 0 0 0 0 0 0 0 0 0 0 0 0 0 0 0 0 0 0 0 0 0 0 0 0 0 1 1 0 0
0 0 0 1 1 1 1 1 0 0 0 0 0 0 0 0 0 0 0 0 0 0 0 0 0 0 0 0 0 0 0 0 0 0 0 0 0 0 0 1 1 1 0
0 0 1 1 1 1 1 0 0 0 0 0 0 0 0 0 0 0 0 0 0 0 0 0 0 0 0 0 0 0 0 0 0 0 0 0 0 0 0 1 1 1 1
1 1 1 1 1 1 1 0 0 0 0 0 0 0 0 0 0 0 0 0 0 0 0 0 0 0 0 0 0 0 0 0 0 0 0 0 0 0 0 1 1 1 1
1 1 1 1 1 1 1 0 0 0 0 0 0 0 0 0 0 0 0 0 0 0 0 0 0 0 0 0 0 0 0 0 0 0 0 0 0 0 0 1 1 1 1
1 2 2 2 2 2 1 0 0 0 0 0 0 0 0 0 0 0 0 0 0 0 0 0 0 0 0 0 0 0 0 0 0 0 0 0 0 0 0 0 1 1 1
2 2 3 3 3 2 1 1 1 0 0 0 0 0 0 0 0 0 0 0 0 0 0 0 0 0 0 0 0 0 0 0 0 0 0 0 0 0 0 0 0 1 1
2 2 2 3 3 2 2 1 1 1 1 0 0 0 0 0 0 0 0 0 0 0 0 0 0 0 0 0 0 0 0 0 0 0 0 0 0 0 1 1 1 1 0
2 1 2 2 2 2 2 1 1 1 1 1 0 0 0 0 0 0 0 0 0 0 0 0 0 0 0 0 0 0 0 0 0 0 0 0 0 1 1 1 1 1 1
1 1 1 2 2 2 1 1 1 1 1 1 0 0 0 0 0 0 0 0 0 0 0 0 0 0 0 0 0 0 0 0 0 0 0 0 0 1 1 1 1 1 1
1 1 2 2 2 1 1 1 1 1 1 1 1 0 0 0 0 0 0 0 0 0 0 0 0 0 0 0 0 0 0 0 0 0 0 0 0 1 1 1 0 0 0
1 1 1 2 2 1 1 1 1 1 1 1 1 0 0 0 0 0 0 1 1 1 1 1 1 1 1 0 1 1 1 0 0 0 0 0 1 1 1 0 0 0 0
1 1 1 1 1 2 1 1 1 1 1 1 1 1 0 0 0 0 1 1 1 1 1 1 1 1 1 1 1 1 1 1 1 0 0 0 0 0 0 0 0 0 0
1 1 1 1 1 2 1 1 1 1 1 1 1 1 0 0 0 0 1 1 1 1 1 1 1 1 1 1 1 1 1 1 1 1 0 0 0 0 0 0 0 0 0
Wind_Speed
1 1 6 8 9 11 12 13 13 13 13 14 15 15 15 15 16 16 16 16 16 16 16 17 17 16 17 16 16 17 17 16 16 16 16 16 16 15 15 15 14 11 15
2 2 7 8 9 10 11 12 12 13 13 13 14 14 14 15 16 15 15 16 16 16 16 17 16 16 17 16 16 16 16 16 16 16 15 14 15 15 14 14 13 10 14
3 3 5 8 9 10 11 11 12 12 12 13 13 14 14 14 15 15 15 15 16 16 16 16 16 16 16 16 16 16 16 15 15 15 14 9 10 13 14 13 13 14 14
4 3 4 8 9 10 11 11 11 12 12 13 13 13 14 14 14 15 15 15 15 15 16 16 16 16 16 16 16 15 15 14 15 14 8 7 7 12 13 13 13 13 13
4 3 3 8 8 9 10 10 11 12 12 12 12 13 13 13 13 14 14 14 14 15 15 15 15 15 14 14 14 13 13 13 13 11 7 6 6 11 12 12 12 12 12
4 3 3 8 8 8 9 10 10 11 12 12 12 12 12 12 13 13 13 13 14 14 14 14 14 13 13 13 12 12 12 12 11 7 7 6 5 10 12 12 12 12 11
3 2 2 7 8 8 9 9 10 10 11 11 11 11 11 12 12 12 12 12 13 13 13 13 12 12 12 11 11 11 11 11 8 7 6 5 6 9 11 11 11 11 10
3 2 2 6 7 8 8 8 9 9 10 10 10 11 11 11 10 10 11 11 11 11 11 11 11 11 11 10 9 9 10 10 8 7 5 5 7 9 10 10 10 10 10
3 3 2 3 4 6 7 8 8 8 8 9 9 10 10 9 9 9 9 9 9 9 9 9 10 10 9 8 8 8 9 10 7 5 6 4 7 9 9 10 9 9 9
3 3 2 3 3 3 3 6 7 7 7 7 8 8 8 7 7 7 6 7 8 8 8 8 7 7 7 7 7 7 8 8 5 5 4 5 8 9 9 9 9 9 8
2 1 1 2 2 2 2 3 4 5 5 5 5 6 6 4 4 3 4 5 6 6 6 6 6 5 5 5 5 6 6 3 4 3 3 6 9 9 9 9 9 8 8
3 2 1 1 1 1 1 2 2 3 3 3 3 3 3 3 2 3 4 4 4 4 4 5 5 5 4 3 3 4 2 3 3 2 3 7 8 9 9 8 8 8 8
4 3 2 2 1 1 1 1 1 1 2 2 2 2 2 2 2 2 2 3 3 3 2 3 3 2 2 1 1 1 2 2 2 2 3 7 8 9 9 8 8 8 8
3 4 3 2 2 1 1 1 1 1 1 1 1 1 1 1 1 1 1 1 1 1 1 1 1 2 2 1 1 1 2 2 2 2 3 7 7 8 9 9 9 9 8
4 4 4 3 3 2 2 1 1 1 1 1 0 1 1 0 0 0 1 1 1 0 1 1 1 1 1 1 0 1 2 2 2 2 2 5 6 7 8 9 9 9 9
5 5 4 4 4 3 2 2 1 1 1 1 1 1 1 1 1 0 0 1 1 0 0 0 0 0 0 0 0 1 2 2 2 2 2 3 5 6 7 8 9 10 9
5 4 4 4 4 3 3 2 2 1 1 1 1 1 1 2 1 1 1 1 1 0 0 0 0 0 0 0 0 1 1 1 2 2 2 2 3 5 7 8 8 9 10
4 4 4 5 4 4 3 2 1 1 1 1 1 1 2 2 2 1 1 1 1 0 0 1 0 0 0 1 0 1 0 1 2 2 2 2 2 2 4 6 7 7 9
5 4 4 3 4 3 2 2 1 1 1 1 1 1 1 2 2 2 1 1 1 1 1 1 1 1 1 1 0 0 0 0 1 2 2 2 2 2 2 3 5 5 7
4 4 3 3 3 3 2 2 1 1 0 0 1 1 1 1 2 2 1 1 1 1 1 1 1 1 1 1 1 1 1 0 0 1 1 1 2 2 2 2 2 4 6
3 3 3 3 3 3 2 2 1 1 0 0 1 1 1 1 1 2 1 1 1 1 2 2 2 1 1 2 2 2 2 2 1 0 0 0 1 1 1 1 1 2 3
5 4 4 4 4 4 2 2 1 1 1 1 0 0 1 1 1 2 2 2 2 2 1 2 2 2 1 2 2 1 0 2 2 2 1 0 0 0 0 1 1 1 2
6 6 5 5 4 4 3 2 2 2 1 1 1 1 1 0 1 1 1 1 1 2 2 2 3 4 2 2 2 3 2 2 0 1 2 1 1 1 1 1 1 1 1
6 5 5 4 4 3 4 3 3 2 1 1 1 0 1 1 1 1 1 1 1 1 1 2 2 2 3 2 2 2 2 3 3 1 1 1 2 2 1 1 1 1 1
5 5 4 4 3 3 4 4 3 2 1 0 1 1 1 2 2 1 1 1 0 0 0 1 1 2 2 2 2 2 2 1 2 2 1 0 1 1 1 1 1 1 1
4 5 4 4 3 3 4 4 4 4 2 2 1 1 1 1 1 2 2 1 1 1 0 0 0 1 1 1 1 1 2 2 3 3 3 2 1 1 1 1 1 1 1
Wind_Direction
9 31 85 79 81 84 85 91 94 95 95 96 96 96 96 96 96 98 100 102 101 102 101 103 104 105 106 110 114 117 119 119 119 119 118 116 116 116 117 115 114 114 116
110 71 94 87 83 84 88 91 94 95 96 96 98 98 98 98 98 98 98 99 101 101 101 100 101 103 105 107 111 115 117 117 118 118 117 117 118 119 119 118 117 119 118
90 67 91 91 87 85 88 92 95 97 95 96 98 100 100 99 99 100 99 98 99 100 101 101 101 100 102 105 110 113 114 115 116 114 110 108 116 119 119 120 121 120 118
99 72 91 96 91 89 89 90 93 99 96 98 98 100 99 100 99 100 98 97 98 100 101 102 101 100 100 103 107 110 112 113 112 109 102 109 116 122 121 121 122 122 120
89 75 102 102 97 94 94 92 91 94 95 97 97 98 98 99 100 99 99 99 99 99 100 100 101 100 100 102 105 109 113 114 113 107 102 101 106 124 125 126 126 126 125
91 77 109 109 104 100 98 96 96 96 97 98 98 97 98 99 99 100 99 98 97 97 99 101 101 102 102 104 106 111 117 117 111 106 105 107 114 128 128 130 130 130 130
102 91 115 115 110 106 102 100 100 100 100 99 100 100 99 99 99 101 101 99 98 99 101 101 101 101 104 106 108 114 119 118 112 111 112 116 126 134 133 132 131 134 134
108 90 97 119 113 109 108 106 104 103 101 100 101 102 100 99 100 101 103 103 102 103 103 103 103 103 105 106 110 117 122 121 119 122 122 127 138 139 138 137 137 139 139
89 77 59 75 100 110 111 107 106 104 103 102 102 102 100 99 100 102 105 109 108 107 105 105 105 105 106 108 112 118 124 122 120 128 136 135 145 145 145 144 144 145 145
83 72 64 59 62 62 82 110 112 112 110 104 101 100 97 94 95 97 96 108 110 109 108 106 105 104 105 104 108 116 121 118 121 131 136 150 156 156 154 153 154 154 153
129 88 79 77 71 68 78 114 109 112 101 91 87 90 78 52 47 61 80 101 108 109 110 108 100 93 88 86 97 111 110 113 129 138 148 162 165 168 167 166 165 165 164
177 177 151 131 119 89 87 73 57 62 61 60 54 57 58 55 36 42 42 67 79 89 98 95 84 75 71 64 79 91 97 124 137 153 171 177 178 178 178 176 175 176 177
182 185 173 175 169 138 71 84 69 60 59 56 58 60 58 51 31 29 26 22 26 35 43 52 52 53 62 74 84 100 127 136 154 174 182 185 188 187 186 185 185 187 189
173 195 189 175 173 172 138 103 108 96 74 64 62 81 79 49 24 24 24 8 14 24 28 37 43 42 44 66 121 144 160 162 171 178 189 193 199 195 193 193 192 193 194
189 199 190 178 183 178 163 177 153 161 172 198 157 162 162 167 308 8 353 345 340 16 33 27 40 19 348 322 269 171 178 177 180 187 196 202 206 205 203 200 199 201 204
194 197 184 184 184 173 178 192 184 173 183 193 210 199 178 179 203 241 301 308 303 297 202 194 204 2 340 329 283 205 188 180 178 191 203 221 221 215 212 211 209 211 212
189 183 181 186 177 177 189 199 187 174 167 200 217 206 195 194 205 214 230 269 270 251 164 152 146 88 88 116 219 233 173 186 185 196 204 218 234 229 219 220 219 220 220
172 171 182 184 170 178 180 177 160 151 163 205 214 203 210 205 197 193 211 247 253 206 139 156 156 122 127 132 79 348 135 187 196 202 204 206 217 237 240 236 232 230 229
173 170 172 167 160 166 159 136 134 135 157 191 199 203 212 206 192 185 207 233 210 156 167 201 141 157 156 136 123 60 105 174 217 215 215 213 209 224 242 261 253 246 243
167 164 163 155 150 139 119 100 90 78 90 163 203 217 201 194 186 181 202 216 160 145 158 155 156 149 157 146 101 57 39 354 327 257 240 220 212 222 231 250 262 266 258
158 158 162 165 158 135 122 137 133 169 208 256 235 218 202 196 184 179 207 196 176 177 191 179 152 145 147 139 107 61 34 34 34 338 271 215 227 234 231 248 267 269 275
174 183 173 177 169 165 165 153 154 155 171 195 270 247 207 199 197 196 192 204 198 185 188 182 161 160 186 170 151 135 38 17 22 29 40 129 238 73 203 240 251 263 271
187 191 188 184 181 178 163 124 94 70 40 24 6 345 328 224 199 203 198 200 201 190 200 201 186 184 194 204 189 167 169 196 318 14 30 46 49 43 18 23 3 307 291
196 186 183 181 180 171 156 157 160 163 181 223 219 330 18 32 61 126 140 154 179 180 201 219 195 196 188 204 208 210 198 164 165 165 23 35 46 29 3 2 354 347 341
183 179 181 176 175 168 164 167 166 173 185 159 92 67 41 27 36 51 73 75 76 105 207 225 195 198 197 207 200 180 174 173 181 181 210 315 32 14 13 1 0 6 15
174 176 174 176 183 171 165 163 169 177 173 163 153 130 61 28 22 29 54 58 44 48 30 355 139 163 193 200 194 189 182 182 181 177 189 203 239 345 10 4 1 0 11